Wrangell, AK

9:55 AM AKDT on May 26, 2018 (GMT -0800)
Wrangell

Weather History for PAWG - February, 2013

Change the Weather History Date:

Wednesday, February 6, 2013

  Actual Average Record
Temperature  
Mean Temperature 36 °F -  
Max Temperature 39 °F 37 °F 53 °F (1978)
Min Temperature 33 °F 28 °F 4 °F (1950)
Degree Days  
Heating Degree Days 29    
Moisture  
Dew Point 28 °F    
Average Humidity 71    
Maximum Humidity 81    
Minimum Humidity 61    
Precipitation  
Precipitation 0.00 in - - ()
Sea Level Pressure  
Sea Level Pressure 29.65 in    
Wind  
Wind Speed 4 mph (NE)    
Max Wind Speed 10 mph    
Max Gust Speed -    
Visibility 10 miles    
Events      
Averages and records for this station are not official NWS values.
T = Trace of Precipitation, MM = Missing Value Source: NWS Daily Summary

Daily Weather History Graph

Daily Weather History Graph

Search for Another Location

Airport or City:

Astronomy

Feb. 06, 2013 Rise Set
Actual Time 7:35 AM AKST 4:32 PM AKST
Civil Twilight 6:54 AM AKST 5:13 PM AKST
Nautical Twilight 6:09 AM AKST 5:58 PM AKST
Astronomical Twilight 5:25 AM AKST 6:42 PM AKST
Moon 4:50 AM AKST (2/6) 12:35 PM AKST (2/6)
Length of Visible Light 10h 19m
Length of Day
8h 57m
Waning Crescent, 15% of the Moon is Illuminated
Feb 6
Waning Crescent
Feb 9
New
Feb 17
First Quarter
Feb 25
Full
Mar 4
Last Quarter

Hourly Weather History & Observations

Time (AKST) Temp. Windchill Dew Point Humidity Pressure Visibility Wind Dir Wind Speed Gust Speed Precip Events Conditions
12:16 AM 37.4 °F 32.1 °F 30.2 °F 75% 29.52 in 10.0 mi ESE 6.9 mph - N/A   Overcast
12:36 AM 37.4 °F 32.1 °F 30.2 °F 75% 29.52 in 10.0 mi East 6.9 mph - N/A   Overcast
12:56 AM 35.6 °F 29.2 °F 28.4 °F 75% 29.52 in 10.0 mi East 8.1 mph - N/A   Overcast
1:16 AM 35.6 °F 30.7 °F 28.4 °F 75% 29.52 in 10.0 mi East 5.8 mph - N/A   Mostly Cloudy
1:36 AM 35.6 °F - 28.4 °F 75% 29.53 in 10.0 mi Calm Calm - N/A   Scattered Clouds
1:56 AM 35.6 °F 31.7 °F 26.6 °F 70% 29.53 in 10.0 mi ESE 4.6 mph - N/A   Mostly Cloudy
2:16 AM 35.6 °F - 28.4 °F 75% 29.53 in 10.0 mi Calm Calm - N/A   Overcast
2:36 AM 35.6 °F - 28.4 °F 75% 29.53 in 10.0 mi Calm Calm - N/A   Mostly Cloudy
3:16 AM 35.6 °F 31.7 °F 28.4 °F 75% 29.54 in 10.0 mi NE 4.6 mph - N/A   Overcast
3:36 AM 35.6 °F 31.7 °F 28.4 °F 75% 29.54 in 10.0 mi NE 4.6 mph - N/A   Scattered Clouds
3:56 AM 35.6 °F 29.2 °F 28.4 °F 75% 29.54 in 10.0 mi East 8.1 mph - N/A   Scattered Clouds
4:16 AM 35.6 °F 29.2 °F 28.4 °F 75% 29.54 in 10.0 mi East 8.1 mph - N/A   Mostly Cloudy
4:36 AM 35.6 °F 30.7 °F 28.4 °F 75% 29.55 in 10.0 mi East 5.8 mph - N/A   Overcast
4:56 AM 35.6 °F 29.9 °F 26.6 °F 70% 29.55 in 10.0 mi ENE 6.9 mph - N/A   Overcast
5:16 AM 35.6 °F 30.7 °F 28.4 °F 75% 29.56 in 10.0 mi ENE 5.8 mph - N/A   Mostly Cloudy
5:36 AM 35.6 °F - 26.6 °F 70% 29.56 in 10.0 mi Calm Calm - N/A   Mostly Cloudy
5:56 AM 35.6 °F - 26.6 °F 70% 29.57 in 10.0 mi Calm Calm - N/A   Mostly Cloudy
6:16 AM 33.8 °F - 26.6 °F 75% 29.57 in 10.0 mi Calm Calm - N/A   Mostly Cloudy
6:36 AM 33.8 °F - 26.6 °F 75% 29.57 in 10.0 mi Calm Calm - N/A   Mostly Cloudy
6:56 AM 33.8 °F - 28.4 °F 81% 29.58 in 10.0 mi Calm Calm - N/A   Mostly Cloudy
7:16 AM 33.8 °F 30.8 °F 26.6 °F 75% 29.59 in 10.0 mi SSE 3.5 mph - N/A   Mostly Cloudy
7:36 AM 33.8 °F 30.8 °F 28.4 °F 81% 29.59 in 10.0 mi ESE 3.5 mph - N/A   Mostly Cloudy
7:56 AM 33.8 °F 28.6 °F 28.4 °F 81% 29.60 in 10.0 mi NE 5.8 mph - N/A   Mostly Cloudy
8:16 AM 35.6 °F 28.6 °F 28.4 °F 75% 29.60 in 10.0 mi East 9.2 mph - N/A   Mostly Cloudy
8:36 AM 35.6 °F 29.2 °F 28.4 °F 75% 29.61 in 10.0 mi ESE 8.1 mph - N/A   Mostly Cloudy
8:56 AM 37.4 °F 30.8 °F 28.4 °F 70% 29.61 in 10.0 mi East 9.2 mph - N/A   Mostly Cloudy
9:16 AM 37.4 °F 32.8 °F 28.4 °F 70% 29.62 in 10.0 mi NE 5.8 mph - N/A   Mostly Cloudy
9:36 AM 37.4 °F - 26.6 °F 65% 29.63 in 10.0 mi Calm Calm - N/A   Mostly Cloudy
9:56 AM 37.4 °F 34.9 °F 26.6 °F 65% 29.64 in 10.0 mi North 3.5 mph - N/A   Scattered Clouds
10:16 AM 37.4 °F 32.1 °F 28.4 °F 70% 29.64 in 10.0 mi East 6.9 mph - N/A   Scattered Clouds
10:36 AM 39.2 °F 32.5 °F 28.4 °F 65% 29.64 in 10.0 mi ESE 10.4 mph - N/A   Scattered Clouds
10:56 AM 39.2 °F 34.2 °F 28.4 °F 65% 29.65 in 10.0 mi East 6.9 mph - N/A   Scattered Clouds
11:16 AM 39.2 °F 33.6 °F 28.4 °F 65% 29.66 in 10.0 mi East 8.1 mph - N/A   Scattered Clouds
11:36 AM 39.2 °F 35.9 °F 28.4 °F 65% 29.66 in 10.0 mi ENE 4.6 mph - N/A   Scattered Clouds
11:56 AM 37.4 °F 33.8 °F 26.6 °F 65% 29.66 in 10.0 mi NNE 4.6 mph - N/A   Mostly Cloudy
12:16 PM 39.2 °F - 28.4 °F 65% 29.67 in 10.0 mi Calm Calm - N/A   Mostly Cloudy
12:36 PM 39.2 °F 35.0 °F 28.4 °F 65% 29.67 in 10.0 mi North 5.8 mph - N/A   Mostly Cloudy
12:56 PM 39.2 °F 34.2 °F 28.4 °F 65% 29.67 in 10.0 mi NNW 6.9 mph - N/A   Mostly Cloudy
1:16 PM 39.2 °F - 28.4 °F 65% 29.68 in 10.0 mi Calm Calm - N/A   Mostly Cloudy
1:36 PM 39.2 °F 35.0 °F 28.4 °F 65% 29.68 in 10.0 mi NNW 5.8 mph - N/A   Mostly Cloudy
1:56 PM 37.4 °F - 28.4 °F 70% 29.68 in 10.0 mi Calm Calm - N/A   Mostly Cloudy
2:16 PM 39.2 °F - 26.6 °F 61% 29.68 in 10.0 mi Calm Calm - N/A   Overcast
2:36 PM 39.2 °F - 26.6 °F 61% 29.68 in 10.0 mi Calm Calm - N/A   Overcast
2:56 PM 39.2 °F 35.9 °F 28.4 °F 65% 29.68 in 10.0 mi North 4.6 mph - N/A   Mostly Cloudy
3:16 PM 37.4 °F 34.9 °F 28.4 °F 70% 29.69 in 10.0 mi North 3.5 mph - N/A   Mostly Cloudy
3:36 PM 37.4 °F 34.9 °F 26.6 °F 65% 29.69 in 10.0 mi North 3.5 mph - N/A   Mostly Cloudy
3:56 PM 37.4 °F - 26.6 °F 65% 29.69 in 10.0 mi Calm Calm - N/A   Mostly Cloudy
4:16 PM 35.6 °F 29.9 °F 26.6 °F 70% 29.69 in 10.0 mi NW 6.9 mph - N/A   Partly Cloudy
4:36 PM 35.6 °F 32.8 °F 26.6 °F 70% 29.69 in 10.0 mi NW 3.5 mph - N/A   Partly Cloudy
4:56 PM 35.6 °F 30.7 °F 26.6 °F 70% 29.70 in 10.0 mi WNW 5.8 mph - N/A   Mostly Cloudy
5:16 PM 35.6 °F 31.7 °F 24.8 °F 65% 29.70 in 10.0 mi West 4.6 mph - N/A   Mostly Cloudy
5:36 PM 35.6 °F 31.7 °F 26.6 °F 70% 29.70 in 10.0 mi NW 4.6 mph - N/A   Mostly Cloudy
5:56 PM 35.6 °F - 26.6 °F 70% 29.71 in 10.0 mi Calm Calm - N/A   Overcast
6:16 PM 35.6 °F - 26.6 °F 70% 29.71 in 10.0 mi Calm Calm - N/A   Overcast
6:36 PM 35.6 °F - 26.6 °F 70% 29.72 in 10.0 mi Calm Calm - N/A   Overcast
6:56 PM 35.6 °F - 28.4 °F 75% 29.73 in 10.0 mi Calm Calm - N/A   Overcast
7:16 PM 35.6 °F - 28.4 °F 75% 29.73 in 10.0 mi Calm Calm - N/A   Overcast
7:36 PM 35.6 °F - 28.4 °F 75% 29.73 in 10.0 mi Calm Calm - N/A   Overcast
7:56 PM 35.6 °F - 28.4 °F 75% 29.74 in 10.0 mi Calm Calm - N/A   Overcast
8:16 PM 35.6 °F 31.7 °F 26.6 °F 70% 29.75 in 10.0 mi South 4.6 mph - N/A   Overcast
8:36 PM 35.6 °F - 28.4 °F 75% 29.75 in 10.0 mi Calm Calm - N/A   Overcast
8:56 PM 35.6 °F - 28.4 °F 75% 29.75 in 10.0 mi Calm Calm - N/A   Overcast
9:16 PM 35.6 °F - 28.4 °F 75% 29.76 in 10.0 mi Calm Calm - N/A   Overcast
9:36 PM 35.6 °F 32.8 °F 28.4 °F 75% 29.76 in 10.0 mi NW 3.5 mph - N/A   Overcast
9:56 PM 35.6 °F - 26.6 °F 70% 29.76 in 10.0 mi Calm Calm - N/A   Overcast
10:16 PM 33.8 °F 29.6 °F 26.6 °F 75% 29.77 in 10.0 mi WNW 4.6 mph - N/A   Overcast
10:36 PM 33.8 °F 28.6 °F 26.6 °F 75% 29.77 in 10.0 mi NW 5.8 mph - N/A   Overcast
10:56 PM 33.8 °F - 26.6 °F 75% 29.77 in 10.0 mi Calm Calm - N/A   Overcast
11:16 PM 35.6 °F 30.7 °F 26.6 °F 70% 29.78 in 10.0 mi NW 5.8 mph - N/A   Clear
11:36 PM 35.6 °F 32.8 °F 24.8 °F 65% 29.78 in 10.0 mi NNW 3.5 mph - N/A   Scattered Clouds
11:56 PM 35.6 °F 32.8 °F 26.6 °F 70% 29.79 in 10.0 mi North 3.5 mph - N/A   Partly Cloudy